Regional Weather Roundup
Issued by NWS Bismarck, ND

Home | Current Version | Previous Version | Text Only | Print | Product List | Glossary On
Versions: 1 2 3 4 5 6 7 8 9 10 11 12 13 14 15 16 17 18 19 20 21 22 23 24 25 26 27 28 29 30 31 32 33 34 35 36 37 38 39 40 41 42 43 44 45 46 47 48 49 50
000
ASUS43 KBIS 241210
RWRBIS

NWR BROADCAST TEXT
NATIONAL WEATHER SERVICE BISMARCK ND
700 AM CDT TUE MAY 24 2016

NOTE: "FAIR" INDICATES FEW OR NO CLOUDS BELOW 12,000 FEET WITH NO
SIGNIFICANT WEATHER AND/OR OBSTRUCTIONS TO VISIBILITY.


CITY           SKY/WX    TMP DP  RH WIND       PRES   REMARKS
WILLISTON      PTCLDY    45  41  86 SW7       29.85R
MINOT          CLEAR     51  42  71 SW3       29.82R
MINOT AFB      CLEAR     48  41  77 S3        29.82R
BISMARCK       CLEAR     50  44  80 W7        29.84R
DICKINSON      CLEAR     40  36  86 W6        29.85R
GARRISON         N/A     46  40  79 VRB3      29.83R
HETTINGER ARPT PTCLDY    39  35  86 CALM      29.88R
JAMESTOWN      CLOUDY    55  51  86 N5        29.79R
BEACH          FAIR      41  41 100 CALM      29.91R
CARRINGTON     FAIR      52  48  87 W8        29.84R
HAZEN          FAIR      43  39  87 SW8       29.87R
LINTON           N/A     48  48 100 W3          N/A
MANDAN         FAIR      45  43  93 NW7       29.84R
OAKES            N/A    N/A N/A N/A MISG        N/A
RUGBY          FAIR      46  43  87 CALM      29.82R
STANLEY        FAIR      43  43 100 SW7       29.86R
WATFORD CITY   CLOUDY    45  39  81 SW7       29.87R
$$

CITY           SKY/WX    TMP DP  RH WIND       PRES   REMARKS
GRAND FORKS    CLOUDY    59  51  75 N9        29.78F
GRAND FORKS AF CLOUDY    56  53  89 N5        29.79S
DEVILS LAKE    MOSUNNY   58  46  64 VRB3      29.83R
FARGO          CLOUDY    61  49  64 NE6       29.79F
CAVALIER       PTSUNNY   63  48  59 SW8       29.83R
GRAFTON        PTSUNNY   59  57  94 CALM      29.83R
GWINNER        FAIR      55  52  88 CALM      29.81R
LANGDON        FAIR      55  50  82 VRB6      29.83R
ROLLA          FAIR      52  45  76 CALM      29.83S
WALHALLA       FAIR      59  45  58 S8        29.82R
$$

CITY           SKY/WX    TMP DP  RH WIND       PRES   REMARKS
ABERDEEN       CLEAR     58  49  72 NE14      29.79R
MOBRIDGE       CLEAR     53  47  79 NW7       29.81R
BUFFALO          N/A     43  35  73 CALM      29.82R
RAPID CITY     CLEAR     47  36  65 NW10      29.89R
GLASGOW        CLOUDY    49  42  77 W13       29.82R
SIDNEY         PTCLDY    43  39  87 S7        29.87R
WOLF POINT     PTCLDY    49  42  77 SW8       29.84R
GLENDIVE       MOCLDY    45  39  81 CALM      29.91R
MILES CITY     CLOUDY    47  42  83 S3        29.89R
BAKER          CLOUDY    41  36  82 CALM      29.90R
$$

CITY           SKY/WX    TMP DP  RH WIND       PRES   REMARKS
BILLINGS       CLOUDY    46  42  86 S5        29.90R
GREAT FALLS    PTCLDY    38  36  92 SW6       29.90S
REGINA         MOCLDY    45  45 100 SE7       29.75R
ESTEVAN        PTCLDY    45  43  93 S8        29.81R
$$




USA.gov is the U.S. government's official web portal to all federal, state and local government web resources and services.